| time (UTC) | temp F | wind direction | speed knots | gust knots | rain 1hr in | rain 24hr in | rain mn in | humidity % | barometer mb |
| 20260507070030 | 56 | 146 | 2.6 | 7.8 | 0.01 | 0.27 | 0.13 | 88 | 1012.1 |
| 20260507064510 | 56 | 86 | 3.5 | 7.0 | 0.01 | 0.27 | 0.13 | 90 | 1011.4 |
| 20260507063107 | 56 | 117 | 1.7 | 3.5 | 0.03 | 0.27 | 0.13 | 90 | 1011.7 |
| 20260507061529 | 56 | 122 | 1.7 | 5.2 | 0.08 | 0.27 | 0.13 | 89 | 1011.7 |
| 20260507060118 | 56 | 130 | 1.7 | 5.2 | 0.12 | 0.26 | 0.12 | 89 | 1012.0 |
| 20260507054526 | 57 | 146 | 2.6 | 7.0 | 0.12 | 0.26 | 0.12 | 87 | 1012.0 |
| 20260507053118 | 57 | 163 | 5.2 | 8.7 | 0.10 | 0.24 | 0.10 | 85 | 1012.1 |
| 20260507051535 | 60 | 162 | 3.5 | 10.4 | 0.04 | 0.18 | 0.04 | 82 | 1012.2 |
| 20260507050025 | 61 | 142 | 4.3 | 8.7 | 0.00 | 0.14 | 0.00 | 77 | 1011.5 |
| 20260507044610 | 62 | 167 | 3.5 | 7.8 | 0.00 | 0.14 | 0.00 | 76 | 1011.4 |
| 20260507043021 | 63 | 83 | 4.3 | 8.7 | 0.00 | 0.14 | 0.00 | 73 | 1011.8 |
| 20260507041601 | 63 | 113 | 2.6 | 7.8 | 0.00 | 0.14 | 0.00 | 71 | 1010.9 |
| 20260507040004 | 63 | 194 | 5.2 | 11.3 | 0.00 | 0.14 | 0.14 | 72 | 1010.7 |
| 20260507034616 | 64 | 158 | 4.3 | 7.8 | 0.00 | 0.14 | 0.14 | 74 | 1011.1 |
| 20260507033040 | 66 | 106 | 1.7 | 6.1 | 0.00 | 0.14 | 0.14 | 77 | 1011.0 |
| 20260507031502 | 66 | 76 | 0.9 | 3.5 | 0.00 | 0.14 | 0.14 | 73 | 1010.7 |
| 20260507030051 | 66 | 69 | 0.9 | 7.8 | 0.00 | 0.14 | 0.14 | 73 | 1010.5 |
| 20260507024636 | 67 | 149 | 0.9 | 4.3 | 0.00 | 0.14 | 0.14 | 77 | 1010.5 |
| 20260507023104 | 67 | 149 | 3.5 | 8.7 | 0.00 | 0.14 | 0.14 | 77 | 1010.3 |
| 20260507021632 | 67 | 56 | 0.9 | 2.6 | 0.00 | 0.14 | 0.14 | 81 | 1010.2 |
| 20260507020057 | 67 | 55 | 0.0 | 0.9 | 0.00 | 0.14 | 0.14 | 80 | 1010.0 |
| 20260507014632 | 68 | 55 | 0.0 | 2.6 | 0.00 | 0.14 | 0.14 | 79 | 1010.2 |
| 20260507013050 | 68 | 55 | 0.0 | 2.6 | 0.00 | 0.14 | 0.14 | 79 | 1010.2 |
| 20260507011516 | 68 | 70 | 0.0 | 1.7 | 0.00 | 0.14 | 0.14 | 79 | 1010.2 |
| 20260507010100 | 68 | 70 | 0.0 | 2.6 | 0.00 | 0.14 | 0.14 | 79 | 1010.1 |
| 20260507004518 | 68 | 76 | 0.0 | 3.5 | 0.00 | 0.14 | 0.14 | 78 | 1009.8 |
| 20260507003117 | 68 | 58 | 0.0 | 2.6 | 0.00 | 0.14 | 0.14 | 78 | 1010.0 |
| 20260507001603 | 69 | 52 | 0.9 | 5.2 | 0.00 | 0.14 | 0.14 | 77 | 1009.9 |
| 20260507000129 | 69 | 52 | 1.7 | 4.3 | 0.00 | 0.14 | 0.14 | 77 | 1009.8 |
| 20260506234552 | 69 | 45 | 1.7 | 6.1 | 0.00 | 0.14 | 0.14 | 77 | 1009.4 |
| 20260506233006 | 69 | 36 | 0.9 | 6.1 | 0.00 | 0.14 | 0.14 | 76 | 1009.3 |
| 20260506231559 | 70 | 48 | 1.7 | 5.2 | 0.00 | 0.14 | 0.14 | 76 | 1009.3 |
| 20260506230052 | 70 | 37 | 1.7 | 5.2 | 0.00 | 0.14 | 0.14 | 75 | 1009.1 |
| 20260506224632 | 70 | 27 | 2.6 | 5.2 | 0.00 | 0.14 | 0.14 | 75 | 1009.2 |
| 20260506221635 | 71 | 50 | 0.9 | 5.2 | 0.00 | 0.14 | 0.14 | 74 | 1009.3 |
| 20260506220050 | 71 | 35 | 1.7 | 5.2 | 0.00 | 0.14 | 0.14 | 73 | 1009.1 |
| 20260506214507 | 72 | 41 | 0.9 | 6.1 | 0.00 | 0.14 | 0.14 | 73 | 1009.0 |
| 20260506213106 | 71 | 56 | 2.6 | 7.0 | 0.00 | 0.14 | 0.14 | 72 | 1009.0 |
| 20260506211529 | 72 | 57 | 1.7 | 6.1 | 0.00 | 0.14 | 0.14 | 72 | 1009.0 |
| 20260506210007 | 71 | 30 | 1.7 | 7.0 | 0.00 | 0.14 | 0.14 | 73 | 1008.7 |
| 20260506204603 | 71 | 33 | 2.6 | 7.0 | 0.00 | 0.14 | 0.14 | 72 | 1008.8 |
| 20260506203019 | 72 | 83 | 1.7 | 7.0 | 0.00 | 0.14 | 0.14 | 71 | 1008.7 |
| 20260506201602 | 72 | 63 | 1.7 | 9.6 | 0.00 | 0.14 | 0.14 | 72 | 1008.6 |
| 20260506200015 | 71 | 75 | 1.7 | 7.0 | 0.00 | 0.14 | 0.14 | 72 | 1008.6 |
| 20260506194614 | 71 | 53 | 2.6 | 8.7 | 0.00 | 0.14 | 0.14 | 73 | 1008.7 |
| 20260506193033 | 71 | 45 | 2.6 | 8.7 | 0.00 | 0.14 | 0.14 | 74 | 1008.7 |
| 20260506191613 | 70 | 48 | 3.5 | 8.7 | 0.00 | 0.14 | 0.14 | 75 | 1008.9 |
| 20260506190051 | 69 | 68 | 3.5 | 9.6 | 0.00 | 0.14 | 0.14 | 77 | 1009.2 |
| 20260506184633 | 68 | 62 | 2.6 | 8.7 | 0.00 | 0.14 | 0.14 | 77 | 1009.5 |
| 20260506183048 | 67 | 66 | 2.6 | 8.7 | 0.00 | 0.14 | 0.14 | 78 | 1009.6 |
| 20260506181504 | 67 | 60 | 6.1 | 12.2 | 0.01 | 0.14 | 0.14 | 79 | 1009.8 |
| 20260506180055 | 67 | 84 | 3.5 | 13.0 | 0.01 | 0.14 | 0.14 | 81 | 1010.0 |
| 20260506174511 | 66 | 91 | 3.5 | 11.3 | 0.01 | 0.14 | 0.14 | 82 | 1009.9 |
| 20260506173110 | 65 | 41 | 4.3 | 15.6 | 0.01 | 0.14 | 0.14 | 84 | 1010.0 |
| 20260506171559 | 65 | 54 | 3.5 | 9.6 | 0.00 | 0.13 | 0.13 | 85 | 1009.9 |
| 20260506170007 | 64 | 43 | 1.7 | 9.6 | 0.00 | 0.13 | 0.13 | 86 | 1010.1 |
| 20260506164625 | 64 | 39 | 2.6 | 8.7 | 0.00 | 0.13 | 0.13 | 87 | 1010.3 |
| 20260506163014 | 63 | 41 | 2.6 | 9.6 | 0.00 | 0.13 | 0.13 | 87 | 1010.4 |
| 20260506161608 | 63 | 70 | 1.7 | 8.7 | 0.00 | 0.13 | 0.13 | 88 | 1010.5 |
| 20260506160034 | 62 | 45 | 2.6 | 8.7 | 0.03 | 0.13 | 0.13 | 87 | 1010.7 |
| 20260506154625 | 63 | 3 | 2.6 | 7.0 | 0.07 | 0.13 | 0.13 | 88 | 1010.6 |
| 20260506153035 | 62 | 71 | 0.9 | 7.0 | 0.08 | 0.13 | 0.13 | 87 | 1010.8 |
| 20260506151628 | 62 | 48 | 3.5 | 9.6 | 0.10 | 0.13 | 0.13 | 86 | 1011.3 |
| 20260506150048 | 62 | 351 | 3.5 | 7.8 | 0.09 | 0.10 | 0.10 | 84 | 1011.4 |
| 20260506144632 | 63 | 26 | 1.7 | 7.8 | 0.05 | 0.06 | 0.06 | 83 | 1011.4 |
| 20260506143040 | 63 | 88 | 2.6 | 7.8 | 0.05 | 0.05 | 0.05 | 82 | 1011.4 |
| 20260506141631 | 64 | 22 | 2.6 | 7.0 | 0.03 | 0.03 | 0.03 | 80 | 1011.3 |
| 20260506140049 | 64 | 35 | 1.7 | 7.0 | 0.01 | 0.01 | 0.01 | 79 | 1011.6 |
| 20260506134512 | 65 | 74 | 2.6 | 7.0 | 0.00 | 0.00 | 0.00 | 77 | 1011.9 |
| 20260506133107 | 66 | 60 | 0.9 | 6.1 | 0.00 | 0.00 | 0.00 | 75 | 1011.4 |
| 20260506131511 | 66 | 46 | 3.5 | 7.8 | 0.00 | 0.00 | 0.00 | 74 | 1011.4 |
| 20260506124517 | 66 | 26 | 3.5 | 7.8 | 0.00 | 0.00 | 0.00 | 75 | 1011.2 |
| 20260506123101 | 66 | 15 | 3.5 | 9.6 | 0.00 | 0.00 | 0.00 | 75 | 1011.6 |
| 20260506121523 | 66 | 81 | 0.9 | 7.8 | 0.00 | 0.00 | 0.00 | 73 | 1011.7 |
| 20260506120113 | 66 | 33 | 2.6 | 8.7 | 0.00 | 0.00 | 0.00 | 73 | 1011.5 |
| 20260506114533 | 66 | 29 | 2.6 | 7.8 | 0.00 | 0.00 | 0.00 | 73 | 1011.3 |
| 20260506113129 | 67 | 1 | 2.6 | 6.1 | 0.00 | 0.00 | 0.00 | 72 | 1011.1 |
| 20260506111548 | 66 | 49 | 2.6 | 7.8 | 0.00 | 0.00 | 0.00 | 74 | 1011.0 |
| 20260506110008 | 66 | 23 | 2.6 | 10.4 | 0.00 | 0.00 | 0.00 | 74 | 1010.9 |
| 20260506104611 | 65 | 16 | 2.6 | 7.8 | 0.00 | 0.00 | 0.00 | 75 | 1010.8 |
| 20260506103017 | 65 | 50 | 2.6 | 7.8 | 0.00 | 0.00 | 0.00 | 75 | 1010.8 |
| 20260506101553 | 65 | 30 | 0.9 | 10.4 | 0.00 | 0.00 | 0.00 | 75 | 1010.6 |
| 20260506100012 | 65 | 6 | 1.7 | 9.6 | 0.00 | 0.00 | 0.00 | 76 | 1010.7 |
| 20260506094609 | 64 | 353 | 1.7 | 6.1 | 0.00 | 0.00 | 0.00 | 77 | 1010.7 |
| 20260506093022 | 64 | 42 | 2.6 | 6.1 | 0.00 | 0.00 | 0.00 | 78 | 1010.7 |
| 20260506091613 | 64 | 24 | 0.0 | 5.2 | 0.00 | 0.00 | 0.00 | 78 | 1010.8 |
| 20260506090029 | 64 | 37 | 0.0 | 1.7 | 0.00 | 0.00 | 0.00 | 76 | 1011.0 |
| 20260506084636 | 65 | 51 | 0.0 | 4.3 | 0.00 | 0.00 | 0.00 | 75 | 1011.0 |
| 20260506083023 | 66 | 15 | 0.9 | 5.2 | 0.00 | 0.00 | 0.00 | 73 | 1010.8 |
| 20260506081620 | 67 | 37 | 0.9 | 9.6 | 0.00 | 0.00 | 0.00 | 71 | 1010.7 |
| 20260506073043 | 66 | 324 | 0.9 | 6.1 | 0.00 | 0.00 | 0.00 | 73 | 1011.0 |
| 20260506071634 | 66 | 34 | 0.0 | 5.2 | 0.00 | 0.00 | 0.00 | 74 | 1011.1 |